Weather History for Richlands, VA

Change the Weather History Date:

Wednesday, June 26, 2013

  Actual Average (KBLF) Record (KBLF)
Temperature  
Mean Temperature 70 °F 72 °F  
Max Temperature 77 °F 80 °F 90 °F (2007)
Min Temperature 63 °F 64 °F 49 °F (1974)
Degree Days  
Heating Degree Days 0 0  
Month to date heating degree days 21  
Since 1 June heating degree days 21  
Since 1 July heating degree days 4587  
Cooling Degree Days 5 7  
Month to date cooling degree days 137  
Year to date cooling degree days 228  
Since 1 June cooling degree days 137  
Growing Degree Days 20 (Base 50)    
Moisture  
Dew Point 66 °F    
Average Humidity 88    
Maximum Humidity 100    
Minimum Humidity 72    
Precipitation  
Precipitation 0.02 in 0.13 in 2.26 in (2006)
Month to date precipitation 3.62  
Year to date precipitation 20.44  
Snow  
Snow 0.00 in - - ()
Month to date snowfall  
Since 1 June snowfall  
Since 1 July snowfall  
Snow Depth -    
Sea Level Pressure  
Sea Level Pressure 30.07 in    
Wind  
Wind Speed 5 mph (SW)    
Max Wind Speed 14 mph    
Max Gust Speed 21 mph    
Visibility 8 miles    
Events Fog , Rain , Thunderstorm    
T = Trace of Precipitation, MM = Missing Value Source: NWS Daily Summary

Daily Weather History Graph

Daily Weather History Graph

Search for Another Location

Airport:

Trip Planner

Search our weather history database for the weather conditions in past years. The results will help you decide how hot, cold, wet, or windy it might be!

Date:

Astronomy

Jun. 26, 2013 Rise Set
Actual Time 6:09 AM EDT 8:51 PM EDT
Civil Twilight 5:38 AM EDT 9:21 PM EDT
Nautical Twilight 4:59 AM EDT 10:00 PM EDT
Astronomical Twilight 4:16 AM EDT 10:43 PM EDT
Moon 11:19 PM EDT (6/26) 9:53 AM EDT (6/26)
Length of Visible Light 15h 43m
Length of Day
14h 41m
Waning Gibbous, 85% of the Moon is Illuminated
Jun 26
Waning Gibbous
Jun 30
Last Quarter
Jul 8
New
Jul 15
First Quarter
Jul 22
Full

Hourly Weather History & Observations

Time (EDT) Temp. Dew Point Humidity Pressure Visibility Wind Dir Wind Speed Gust Speed Precip Events Conditions
12:15 AM 68.4 °F 63.7 °F 85% 30.13 in 10.0 mi SW 3.5 mph - N/A   Clear
12:35 AM 68.2 °F 64.4 °F 88% 30.12 in 10.0 mi South 4.6 mph - N/A   Clear
12:55 AM 68.0 °F 63.9 °F 87% 30.12 in 10.0 mi WSW 4.6 mph - N/A   Clear
1:15 AM 66.7 °F 64.4 °F 92% 30.12 in 10.0 mi Calm Calm - N/A   Clear
1:35 AM 66.6 °F 64.4 °F 93% 30.11 in 10.0 mi SW 3.5 mph - N/A   Clear
1:55 AM 67.3 °F 63.5 °F 88% 30.12 in 10.0 mi West 5.8 mph - N/A   Clear
2:15 AM 67.1 °F 63.5 °F 88% 30.10 in 10.0 mi Calm Calm - N/A   Clear
2:35 AM 65.8 °F 63.7 °F 93% 30.10 in 10.0 mi Calm Calm - N/A   Clear
2:55 AM 64.6 °F 63.9 °F 98% 30.09 in 7.0 mi Calm Calm - N/A   Clear
3:15 AM 64.4 °F 63.7 °F 98% 30.09 in 5.0 mi SSE 4.6 mph - N/A   Clear
3:35 AM 63.7 °F 63.5 °F 99% 30.09 in 4.0 mi SSE 3.5 mph - N/A   Clear
3:55 AM 65.1 °F 63.9 °F 96% 30.08 in 10.0 mi Calm Calm - N/A   Clear
4:15 AM 65.5 °F 64.0 °F 95% 30.08 in 10.0 mi SW 3.5 mph - N/A   Mostly Cloudy
4:35 AM 65.3 °F 64.4 °F 97% 30.08 in 7.0 mi Calm Calm - N/A   Overcast
4:55 AM 66.4 °F 65.3 °F 96% 30.09 in 7.0 mi West 4.6 mph - N/A   Overcast
5:15 AM 67.1 °F 66.2 °F 97% 30.10 in 5.0 mi WSW 6.9 mph - N/A   Overcast
5:35 AM 67.1 °F 66.0 °F 96% 30.10 in 5.0 mi WSW 9.2 mph - N/A   Overcast
5:55 AM 66.6 °F 65.8 °F 98% 30.11 in 5.0 mi WSW 6.9 mph - N/A   Overcast
6:15 AM 67.1 °F 65.8 °F 96% 30.11 in 5.0 mi WSW 6.9 mph - N/A   Overcast
6:35 AM 66.9 °F 66.2 °F 98% 30.12 in 5.0 mi SW 4.6 mph - N/A   Overcast
6:55 AM 66.6 °F 65.8 °F 98% 30.12 in 3.0 mi SW 9.2 mph - N/A   Overcast
7:15 AM 66.7 °F 65.7 °F 96% 30.12 in 4.0 mi SW 6.9 mph - N/A   Scattered Clouds
7:35 AM 66.2 °F 65.3 °F 97% 30.12 in 1.2 mi Calm Calm - N/A   Scattered Clouds
7:55 AM 65.3 °F 65.3 °F 100% 30.12 in 0.2 mi Calm Calm - N/A Fog Fog
8:15 AM 67.1 °F 66.4 °F 98% 30.12 in 3.0 mi West 4.6 mph - N/A   Overcast
8:35 AM 68.4 °F 66.4 °F 93% 30.12 in 7.0 mi SW 5.8 mph - N/A   Mostly Cloudy
8:55 AM 69.6 °F 67.1 °F 92% 30.11 in 7.0 mi WSW 8.1 mph - N/A   Scattered Clouds
9:15 AM 69.6 °F 67.5 °F 93% 30.11 in 7.0 mi West 4.6 mph - N/A   Mostly Cloudy
9:35 AM 70.9 °F 68.4 °F 92% 30.11 in 7.0 mi WSW 8.1 mph - N/A   Mostly Cloudy
9:55 AM 72.0 °F 68.2 °F 88% 30.11 in 7.0 mi West 4.6 mph - N/A   Scattered Clouds
10:15 AM 72.3 °F 68.7 °F 88% 30.11 in 7.0 mi West 6.9 mph - N/A   Mostly Cloudy
10:35 AM 72.7 °F 68.4 °F 86% 30.11 in 10.0 mi NW 4.6 mph - N/A   Mostly Cloudy
11:15 AM 75.4 °F 69.1 °F 81% 30.10 in 10.0 mi West 13.8 mph 17.3 mph N/A   Scattered Clouds
11:35 AM 75.2 °F 69.1 °F 81% 30.08 in 10.0 mi WSW 5.8 mph - N/A   Scattered Clouds
11:55 AM 74.7 °F 68.9 °F 82% 30.09 in 10.0 mi WSW 9.2 mph - N/A   Mostly Cloudy
12:15 PM 77.2 °F 69.3 °F 76% 30.08 in 10.0 mi WSW 10.4 mph 17.3 mph N/A   Mostly Cloudy
12:35 PM 76.3 °F 68.5 °F 77% 30.09 in 10.0 mi West 9.2 mph 17.3 mph N/A   Mostly Cloudy
12:55 PM 77.0 °F 68.2 °F 74% 30.10 in 10.0 mi West 10.4 mph 17.3 mph N/A Thunderstorm Mostly Cloudy
1:15 PM 75.4 °F 67.5 °F 76% 30.10 in 10.0 mi WSW 11.5 mph 17.3 mph N/A Thunderstorm Mostly Cloudy
1:35 PM 74.7 °F 67.6 °F 79% 30.12 in 10.0 mi West 11.5 mph 20.7 mph N/A Thunderstorm Mostly Cloudy
1:55 PM 68.0 °F 66.6 °F 95% 30.12 in 4.0 mi NNW 4.6 mph 19.6 mph 0.02 in Rain , Thunderstorm Light Thunderstorms and Rain
2:15 PM 68.4 °F 67.3 °F 96% 30.11 in 10.0 mi WSW 4.6 mph - N/A Thunderstorm Unknown
2:35 PM 69.8 °F 68.0 °F 94% 30.10 in 10.0 mi SW 3.5 mph - N/A   Mostly Cloudy
2:55 PM 70.7 °F 67.8 °F 91% 30.09 in 10.0 mi WSW 3.5 mph - N/A   Scattered Clouds
3:15 PM 71.6 °F 68.5 °F 90% 30.08 in 10.0 mi SW 4.6 mph - N/A   Clear
3:35 PM 72.7 °F 68.5 °F 87% 30.08 in 10.0 mi SW 4.6 mph - N/A   Clear
3:55 PM 74.1 °F 69.3 °F 85% 30.06 in 10.0 mi WNW 4.6 mph - N/A   Scattered Clouds
4:15 PM 74.7 °F 68.7 °F 82% 30.06 in 10.0 mi WSW 6.9 mph - N/A   Mostly Cloudy
4:35 PM 75.2 °F 68.5 °F 80% 30.05 in 10.0 mi SW 3.5 mph - N/A   Mostly Cloudy
4:55 PM 76.1 °F 68.4 °F 77% 30.04 in 10.0 mi West 4.6 mph - N/A   Mostly Cloudy
5:15 PM 77.4 °F 69.3 °F 76% 30.03 in 10.0 mi WSW 6.9 mph - N/A   Mostly Cloudy
5:35 PM 76.6 °F 68.7 °F 76% 30.03 in 10.0 mi SW 4.6 mph - N/A   Mostly Cloudy
5:55 PM 76.5 °F 68.5 °F 76% 30.02 in 10.0 mi SSW 5.8 mph - N/A   Mostly Cloudy
6:15 PM 75.2 °F 67.6 °F 77% 30.01 in 10.0 mi South 3.5 mph - N/A Thunderstorm Scattered Clouds
6:35 PM 74.7 °F 68.2 °F 80% 30.01 in 10.0 mi West 5.8 mph - N/A Thunderstorm Scattered Clouds
6:55 PM 75.2 °F 67.6 °F 77% 30.02 in 10.0 mi SW 5.8 mph - N/A   Clear
7:15 PM 75.2 °F 68.2 °F 79% 30.02 in 10.0 mi WSW 5.8 mph - N/A   Clear
7:35 PM 75.0 °F 65.3 °F 72% 30.02 in 10.0 mi SSW 6.9 mph - N/A   Clear
7:55 PM 73.8 °F 65.3 °F 75% 30.02 in 10.0 mi SSW 4.6 mph - N/A   Clear
8:15 PM 72.9 °F 64.8 °F 76% 30.01 in 10.0 mi SSW 5.8 mph - N/A   Clear
8:35 PM 72.0 °F 64.6 °F 77% 30.01 in 10.0 mi West 6.9 mph - N/A   Clear
8:55 PM 71.4 °F 64.8 °F 79% 30.00 in 10.0 mi WSW 6.9 mph - N/A   Clear
9:15 PM 70.5 °F 65.3 °F 83% 30.01 in 10.0 mi West 5.8 mph - N/A   Clear
9:35 PM 70.3 °F 65.5 °F 85% 29.99 in 10.0 mi SSW 4.6 mph - N/A   Clear
9:55 PM 70.0 °F 65.3 °F 85% 30.00 in 10.0 mi SW 6.9 mph - N/A   Clear
10:15 PM 69.8 °F 65.3 °F 86% 30.01 in 10.0 mi SSW 5.8 mph - N/A   Clear
10:35 PM 68.7 °F 65.5 °F 89% 30.01 in 10.0 mi South 3.5 mph - N/A   Clear
10:55 PM 68.0 °F 65.3 °F 91% 30.01 in 10.0 mi South 4.6 mph - N/A   Clear
11:15 PM 67.3 °F 65.1 °F 93% 30.01 in 10.0 mi SSE 4.6 mph - N/A   Clear
11:35 PM 67.6 °F 64.4 °F 89% 30.01 in 10.0 mi SSE 4.6 mph - N/A   Clear
11:55 PM 67.5 °F 64.4 °F 90% 30.01 in 10.0 mi SSE 4.6 mph - N/A   Clear